Location: Nelson
(47.1935°N, 121.0537°W)
Time: 13:34:19
(UTC+00:00)

Envisat - Pass Details

Date: 03 December 2022
Orbit: 763 x 765 km, 98.2° (Epoch: 31 January)

Event Time Altitude Azimuth Distance (km) Brightness Sun altitude
Rises 14:20:13 0° 357° (N) 3,245 6.0 -11.8°
Reaches altitude 10° 14:24:08 10° 326° (NNW) 2,313 5.0 -11.2°
Enters shadow 14:24:51 11° 319° (NW) 2,235 4.9 -11.1°
